[[{"header":{"parameterUnit":"m.s-1","parameterCategory":1,"la1":30.2991,"la2":30.254,"lo1":-89.0895,"lo2":-89.0444,"dy":0.0017,"dx":0.0017,"nx":28,"ny":28,"refTime":"2025-08-24T21:00:00:Z","depth":0,"parameterNumber":2,"parameterNumberName":"U-component_of_WINDS"},"data":[0,0,0,0,0,0,0,0,0,0,0,0,0,0,0,0,0,0,0,0,0,0,0,0,0,0,0,0,0,0,0,0,0,0,0,0,0,0,0,0,0,0,0,0,0,0,0,0,0,0,0,0,0,0,0,0,0,0,2.1776,2.1777,0,2.1843,2.1844,2.1844,2.1827,2.1826,2.1824,2.1823,2.1888,2.1891,2.1894,0,0,0,0,0,0,0,0,0,0,0,0,0,2.1632,2.1635,2.1776,2.1777,2.1778,2.1843,2.1844,2.1844,2.1827,2.1826,2.1824,2.1823,2.1888,2.1891,2.1895,0,0,0,0,0,0,0,0,0,0,0,0,0,2.1696,2.1636,2.1776,2.1777,2.1778,2.1842,2.1844,2.1845,2.1828,2.1826,2.1824,2.1822,2.1886,2.1891,2.1895,2.1962,0,0,2.1909,2.1911,0,0,0,0,0,0,0,0,2.1693,2.1701,2.1776,2.1777,2.1778,2.1825,2.1817,2.1884,2.1828,2.1809,2.1823,2.1821,2.1869,2.1874,2.1891,2.1965,2.1967,2.1909,2.1912,2.1914,2.1915,0,0,0,0,0,0,0,2.1688,2.1698,2.1802,2.1777,2.1779,2.1774,2.1781,2.1829,2.1849,2.181,2.1809,2.1817,2.1869,2.1887,2.1892,2.1968,2.1909,2.1913,2.1916,2.1917,2.2099,2.2101,0,0,0,0,0,0,2.1683,2.1695,2.18,2.1804,2.173,2.1778,2.1786,2.1812,2.1848,2.1852,2.1819,2.1816,2.188,2.1887,2.1895,2.1974,2.1914,2.1918,2.192,2.2097,2.21,2.2102,0,0,0,0,0,0,2.168,2.1693,2.1798,2.175,2.1762,2.1782,2.1812,2.1814,2.1832,2.1855,2.1858,2.1834,2.1879,2.1888,2.1945,2.1976,2.192,2.1924,2.2094,2.2098,2.2101,2.2134,0,0,0,0,0,0,2.1676,2.1692,2.1718,2.175,2.1765,2.1848,2.1814,2.1817,2.184,2.1837,2.187,2.1873,2.1878,2.1939,2.195,2.1981,2.1927,2.2092,2.2096,2.21,2.213,2.2138,2.2145,0,0,0,0,0,2.1671,2.1724,2.1719,2.1732,2.1798,2.185,2.1858,2.1863,2.1843,2.1868,2.1883,2.1872,2.1972,2.1945,2.1957,2.199,2.209,2.2095,2.2099,2.2127,2.2136,2.2144,0,0,0,0,0,0,2.1693,2.1728,2.1723,2.1789,2.1816,2.1847,2.1879,2.1873,2.1907,2.1903,2.1907,2.1915,2.1972,2.1987,2.1957,2.2056,2.2027,2.2035,2.2044,2.2053,2.206,2.2055,2.1931,0,0,0,0,0,2.1706,2.1746,2.1774,2.1829,2.1843,2.1859,2.1881,2.1883,2.1912,2.1923,2.1942,2.197,2.2007,2.2031,2.2067,2.2133,2.2139,2.2162,2.2169,2.2175,2.2181,2.2216,2.2226,2.2118,2.2118,2.2118,0,0,2.1732,2.1756,2.1781,2.1834,2.1856,2.1896,2.1869,2.1912,2.1942,2.193,2.1984,2.1999,2.203,2.2091,2.2119,2.2105,2.2212,2.2181,2.2186,2.2188,2.2222,2.2232,2.2241,2.2121,2.2121,2.212,0,0,2.18,2.1823,2.1871,2.1894,2.1927,2.1938,2.1949,2.1981,2.199,2.2046,2.2037,2.2072,2.2137,2.2159,2.2179,2.2256,2.2247,2.2268,2.2305,2.2339,2.2347,2.2355,2.2381,2.239,2.2274,2.2274,2.2274,0,2.1828,2.1889,2.1896,2.194,2.1963,2.1956,2.2003,2.2025,2.2068,2.2084,2.2068,2.2149,2.217,2.2235,2.2254,2.2271,2.2284,2.2263,2.2346,2.2353,2.236,2.2385,2.2395,2.2276,2.2276,2.2276,2.2275,0,2.192,2.1963,2.1997,2.204,2.2068,2.2114,2.2127,2.2153,2.2153,2.2165,2.2221,2.2246,2.2286,2.2302,2.2302,2.2368,2.2358,2.2345,2.2315,2.2373,2.2396,2.2406,2.2279,2.2278,2.2278,2.2277,0,0,2.2002,2.205,2.2062,2.2081,2.2118,2.2151,2.2197,2.2237,2.2259,2.229,2.2327,2.2382,2.237,2.2392,2.2395,2.2425,2.2483,2.2407,2.2408,2.2419,2.2556,2.2565,2.2576,2.2479,2.248,2.2482,2.2553,0,2.2071,2.2152,2.216,2.2232,2.2271,2.2265,2.2305,2.2332,2.2344,2.2378,2.2392,2.2431,2.2412,2.2425,2.2455,2.247,2.2511,2.2465,2.2512,2.2513,2.2502,2.2589,2.2598,2.2664,2.2562,2.2564,2.2565,0,2.2163,2.2197,2.2273,2.2305,2.2322,2.2357,2.2395,2.2428,2.2458,2.2465,2.2491,2.249,2.2536,2.2507,2.257,2.2539,2.2559,2.2569,2.2572,2.2575,2.2541,2.2592,2.2685,2.2694,2.258,2.2579,2.2578,0,2.2212,2.2278,2.2332,2.2349,2.2388,2.2413,2.243,2.2459,2.2482,2.2515,2.2531,2.2568,2.2588,2.2617,2.2626,2.2605,2.2688,2.266,2.2694,2.2694,2.271,2.2709,2.2806,2.2727,2.2726,2.2726,2.2726,0,2.2288,2.2334,2.2354,2.2387,2.2439,2.2448,2.2498,2.2514,2.254,2.2575,2.2573,2.2606,2.2617,2.2651,2.2659,2.2709,2.2719,2.2725,2.2726,2.2724,2.2723,2.2735,2.273,2.2729,2.2728,2.2728,2.2727,0,2.2351,2.2367,2.2424,2.2458,2.2467,2.2504,2.2531,2.2563,2.2576,2.262,2.2631,2.2651,2.2692,2.2704,2.2753,2.2758,2.2816,2.2814,2.2806,2.2806,2.2838,2.2834,2.2945,2.296,2.2873,2.2873,2.2874,0,2.2397,2.2432,2.247,2.2494,2.2513,2.2551,2.2576,2.2587,2.2612,2.265,2.2676,2.2717,2.275,2.2815,2.2833,2.287,2.2868,2.2904,2.2873,2.287,2.2866,2.2863,2.2866,2.2909,2.291,2.2911,2.2912,0,2.2476,2.2483,2.2519,2.2558,2.2588,2.2619,2.2649,2.2668,2.2683,2.2712,2.2754,2.278,2.283,2.287,2.2908,2.2925,2.2921,2.2922,2.2931,2.2928,2.2922,2.2924,2.282,2.2918,2.2918,2.2917,2.2917,2.2917,2.2531,2.2562,2.2593,2.2634,2.2658,2.2686,2.2717,2.2735,2.277,2.2813,2.2817,2.2862,2.2892,2.2943,2.2962,2.2997,2.2986,2.3,2.3003,2.3006,2.3008,2.2918,2.3004,2.3004,2.3004,2.3004,2.3003,0,2.2608,2.2629,2.2666,2.2709,2.274,2.2735,2.2768,2.2795,2.2835,2.2863,2.2896,2.2945,2.2984,2.3006,2.3045,2.3068,2.3067,2.3078,2.3075,2.3079,2.3016,2.3003,2.3078,2.3078,2.3078,2.3078,2.3078,2.3078,2.2652,2.2705,2.2715,2.2779,2.2799,2.2844,2.2863,2.2889,2.2912,2.2966,2.2999,2.3014,2.304,2.308,2.3116,2.3121,2.3135,2.3146,2.315,2.3091,2.3083,2.3076,2.3064,2.315,2.315,2.321,2.321,2.3211]},{"header":{"parameterUnit":"m.s-1","parameterCategory":1,"la1":30.2991,"la2":30.254,"lo1":-89.0895,"lo2":-89.0444,"dy":0.0017,"dx":0.0017,"nx":28,"ny":28,"refTime":"2025-08-24T21:00:00:Z","depth":0,"parameterNumber":3,"parameterNumberName":"V-component_of_WINDS"},"data":[0,0,0,0,0,0,0,0,0,0,0,0,0,0,0,0,0,0,0,0,0,0,0,0,0,0,0,0,0,0,0,0,0,0,0,0,0,0,0,0,0,0,0,0,0,0,0,0,0,0,0,0,0,0,0,0,0,0,4.992,4.9921,0,4.9962,4.9963,4.9963,4.9902,4.99,4.9898,4.9896,4.9933,4.9936,4.9939,0,0,0,0,0,0,0,0,0,0,0,0,0,4.9783,4.9785,4.992,4.9921,4.9921,4.9962,4.9963,4.9963,4.9903,4.99,4.9897,4.9895,4.9932,4.9935,4.9939,0,0,0,0,0,0,0,0,0,0,0,0,0,4.9835,4.9786,4.992,4.9896,4.9894,4.9962,4.9963,4.9963,4.9903,4.99,4.9897,4.9894,4.9931,4.9935,4.9939,5.003,0,0,4.9953,4.9955,0,0,0,0,0,0,0,0,4.9832,4.984,4.9899,4.9898,4.9896,4.9924,4.9927,4.9986,4.9904,4.99,4.9896,4.9892,4.9932,4.9936,4.9951,5.0032,5.0034,4.9953,4.9956,4.9958,4.9959,0,0,0,0,0,0,0,4.9829,4.9838,4.9937,4.99,4.9898,4.9882,4.9885,4.9938,4.9933,4.99,4.9896,4.9902,4.9931,4.9947,4.9951,5.0034,4.9953,4.9957,4.996,4.9962,5.0193,5.0196,0,0,0,0,0,0,4.9829,4.9835,4.9935,4.9938,4.9856,4.9887,4.9891,4.9918,4.9932,4.9932,4.9904,4.9899,4.9941,4.9946,4.9952,5.006,4.9958,4.9962,4.9965,5.0189,5.0194,5.0197,0,0,0,0,0,0,4.9826,4.9838,4.9934,4.9886,4.9896,4.9892,4.9923,4.9921,4.9937,4.9936,4.9934,4.9922,4.9938,4.9946,5.0012,5.006,4.9964,4.9968,5.0185,5.0191,5.0195,5.0276,0,0,0,0,0,0,4.9822,4.9838,4.9873,4.9887,4.9899,4.9994,4.9926,4.9924,4.9945,4.9938,4.9952,4.9951,4.9936,5.0006,5.0016,5.0065,4.9972,5.0181,5.0188,5.0194,5.0269,5.0284,5.0296,0,0,0,0,0,4.9818,4.9893,4.9875,4.9888,4.9944,4.9997,5.0004,4.9987,4.9949,4.9984,4.9984,4.9951,5.0054,5.0013,5.0024,5.0075,5.0178,5.0186,5.0193,5.0263,5.0281,5.0296,0,0,0,0,0,0,4.9882,4.9894,4.9875,4.9957,4.9977,4.9987,5.0031,5.0006,5.0036,5.0028,5.0004,5.0007,5.0078,5.0083,5.0038,5.0164,5.0109,5.012,5.0158,5.0175,5.0188,5.0185,4.9975,0,0,0,0,0,4.9907,4.9951,4.9958,5.003,5.0041,5.0035,5.0057,5.0043,5.0061,5.0069,5.0073,5.0091,5.0127,5.0151,5.0185,5.027,5.0272,5.031,5.0324,5.0335,5.0344,5.0389,5.0406,5.0223,5.0223,5.0223,0,0,4.9956,4.9968,4.9997,5.0043,5.0057,5.0101,5.0042,5.0091,5.0123,5.0075,5.0139,5.0143,5.0161,5.0237,5.0271,5.0243,5.0395,5.0345,5.0353,5.0356,5.0399,5.0416,5.0432,5.0228,5.0227,5.0227,0,0,5.007,5.0084,5.0146,5.0161,5.0184,5.0179,5.0194,5.0208,5.021,5.0274,5.0239,5.0276,5.0339,5.0354,5.0369,5.0491,5.0461,5.0502,5.0571,5.0616,5.0631,5.0643,5.0686,5.0702,5.0511,5.0511,5.0512,0,5.0128,5.0196,5.018,5.0233,5.0253,5.0215,5.0276,5.0292,5.0323,5.0338,5.0307,5.0386,5.0396,5.0475,5.0505,5.0519,5.0534,5.05,5.063,5.0643,5.0654,5.0695,5.0711,5.0516,5.0516,5.0515,5.0515,0,5.0266,5.0314,5.0361,5.0395,5.0421,5.0478,5.0469,5.0497,5.0481,5.048,5.0545,5.0555,5.059,5.0608,5.0592,5.0686,5.0668,5.0634,5.0578,5.0677,5.0715,5.073,5.0523,5.0521,5.052,5.0519,0,0,5.042,5.0447,5.0464,5.0479,5.0502,5.0538,5.0593,5.0629,5.0654,5.0677,5.0722,5.0777,5.0747,5.0765,5.075,5.0789,5.0885,5.075,5.075,5.0775,5.0988,5.1013,5.1032,5.0866,5.0869,5.0871,5.0987,0,5.0533,5.0631,5.0618,5.0711,5.0754,5.0719,5.0767,5.0785,5.0786,5.0821,5.082,5.086,5.0817,5.0828,5.0865,5.0865,5.0927,5.0857,5.0906,5.0908,5.0902,5.1052,5.1078,5.1187,5.1002,5.1004,5.1006,0,5.0678,5.071,5.0807,5.0825,5.0842,5.0886,5.0919,5.0954,5.0974,5.0971,5.0993,5.0971,5.1025,5.0969,5.1042,5.0995,5.1014,5.1017,5.1021,5.1024,5.0962,5.1058,5.1221,5.1237,5.1029,5.1027,5.1025,0,5.078,5.0847,5.0914,5.0928,5.095,5.0982,5.0992,5.1009,5.1032,5.1061,5.1075,5.1109,5.1127,5.1153,5.1141,5.1101,5.1216,5.1159,5.1214,5.1215,5.1239,5.1238,5.1407,5.1253,5.1253,5.1252,5.1252,0,5.0907,5.0968,5.0961,5.1002,5.1069,5.1054,5.112,5.1126,5.1142,5.1182,5.1153,5.1192,5.1173,5.121,5.1201,5.1263,5.1271,5.1269,5.1266,5.1272,5.1272,5.1283,5.1275,5.1257,5.1256,5.1255,5.1254,0,5.1032,5.103,5.1101,5.1117,5.1122,5.1171,5.1184,5.1222,5.1221,5.1273,5.1284,5.1282,5.1324,5.1314,5.1359,5.1353,5.1431,5.1418,5.1425,5.1422,5.1477,5.1472,5.1659,5.1683,5.1514,5.1516,5.1517,0,5.1113,5.116,5.1182,5.1209,5.1222,5.1265,5.1289,5.1276,5.1302,5.133,5.1364,5.1404,5.1436,5.1504,5.1505,5.154,5.1527,5.1591,5.1532,5.1537,5.1528,5.1525,5.153,5.1602,5.1604,5.1605,5.1606,0,5.1257,5.1255,5.1292,5.133,5.1361,5.1389,5.1415,5.1437,5.1426,5.1457,5.1501,5.1526,5.1574,5.1613,5.1646,5.1654,5.1628,5.1625,5.164,5.1646,5.1648,5.1647,5.1456,5.1621,5.1619,5.1618,5.1617,5.1617,5.1362,5.1403,5.1426,5.1468,5.1487,5.1512,5.1549,5.1554,5.1591,5.1631,5.162,5.167,5.1689,5.173,5.1743,5.1781,5.1757,5.1778,5.1783,5.1788,5.1795,5.1643,5.1786,5.1786,5.1786,5.1785,5.1785,0,5.1505,5.1519,5.1559,5.1597,5.1631,5.1607,5.1634,5.1663,5.1708,5.1729,5.1762,5.1812,5.1851,5.1856,5.1893,5.1922,5.1911,5.1932,5.1929,5.1932,5.1814,5.1798,5.194,5.194,5.194,5.194,5.194,5.194,5.1583,5.165,5.165,5.1726,5.1738,5.1789,5.1807,5.1829,5.1846,5.1905,5.1938,5.1942,5.1957,5.1995,5.2029,5.2029,5.2044,5.2069,5.2065,5.1955,5.194,5.1925,5.191,5.2073,5.2073,5.2179,5.218,5.2181]}]]